Regional Weather Roundup
Issued by NWS Sioux Falls, SD

Home | Current Version | Previous Version | Text Only | Print | Product List | Glossary On
Versions: 1 2 3 4 5 6 7 8 9 10 11 12 13 14 15 16 17 18 19 20 21 22 23 24 25 26 27 28 29 30 31 32 33 34 35 36 37 38 39 40 41 42 43 44 45 46 47 48 49 50
000
ASUS43 KFSD 280510
RWRFSD

WEATHER ROUNDUP FOR SE SOUTH DAKOTA/SW MINNESOTA/NW IOWA
NATIONAL WEATHER SERVICE SIOUX FALLS SD
1200 AM CDT WED SEP 28 2016

NOTE: "FAIR" INDICATES FEW OR NO CLOUDS BELOW 12,000 FEET WITH NO
SIGNIFICANT WEATHER AND OR OBSTRUCTIONS TO VISIBILITY.


SDZ038>040-050-052>070-280600-
SOUTHEAST SOUTH DAKOTA

CITY           SKY/WX    TMP DP  RH WIND       PRES   REMARKS
BROOKINGS      CLEAR     43  38  82 N5        29.97R
CHAMBERLAIN    CLEAR     58  43  56 NE5       29.98S
HURON          CLOUDY    43  38  82 N3        29.98R
MADISON        FAIR      45  37  76 N9        29.97R
MITCHELL       CLEAR     49  40  71 NW6       29.97R
SIOUX FALLS    CLEAR     52  36  54 N8        29.95R
WINNER         FAIR      53  45  74 SW3       30.01R HAZE
YANKTON        CLEAR     52  43  71 N8        29.94R
$$

MNZ071-072-080-081-089-090-097-098-280600-
SOUTHWEST MINNESOTA

CITY           SKY/WX    TMP DP  RH WIND       PRES   REMARKS
FAIRMONT       CLOUDY    51  43  74 N17       29.92R
JACKSON        MOCLDY    52  41  66 N9G17     29.94R
LUVERNE        CLEAR     50  34  53 N5        29.95R
MARSHALL       CLOUDY    53  44  71 NE7       29.96R
MONTEVIDEO     CLOUDY    52  45  76 NE10      29.99R
PIPESTONE      CLEAR     50  37  62 NE5       29.95R
REDWOOD FALLS  MOCLDY    51  43  74 N10G18    29.95R
TRACY          CLOUDY    53  45  73 N8        29.96R
WINDOM         CLOUDY    52  43  71 N14       29.94R
WORTHINGTON    CLEAR     48  42  80 N5        29.94R
$$

IAZ001>003-012>014-020>022-031-032-NEZ013-014-SDZ071-280600-
NORTHWEST IOWA

CITY           SKY/WX    TMP DP  RH WIND       PRES   REMARKS
CHEROKEE       CLEAR     50  42  73 NE3       29.91R
DENISON        CLEAR     50  46  87 CALM      29.87R
ESTHERVILLE    CLOUDY    51  45  79 N8        29.92R
LE MARS        CLEAR     54  43  66 N6        29.93R
ORANGE CITY    CLEAR     55  37  50 N9        29.92R
SHELDON        CLEAR     46  39  76 N6        29.91R
SIOUX CITY     CLEAR     56  46  69 N6        29.91R
SPENCER        PTCLDY    52  41  66 NE12      29.92R
STORM LAKE     CLEAR     54  39  58 N8G15     29.90R
$$

ABBREVIATIONS USED IN REMARKS
   TC - TEMPERATURE IN CELSIUS
  WCI - WIND CHILL INDEX
   HX - HEAT INDEX
  VSB - VISIBILITY





USA.gov is the U.S. government's official web portal to all federal, state and local government web resources and services.